| time (UTC) | temp F | wind direction | speed MPH | gust MPH | rain 1hr in | rain 24hr in | rain mn in | humidity % | barometer mb |
| 20260901010006 | 78 | 142 | 0.0 | 2.0 | 0.00 | 0.02 | 0.02 | 71 | 1017.6 |
| 20260901004503 | 79 | 213 | 0.0 | 1.0 | 0.00 | 0.02 | 0.02 | 70 | 1017.8 |
| 20260901003009 | 79 | 224 | 0.0 | 1.0 | 0.00 | 0.02 | 0.02 | 69 | 1017.8 |
| 20260901001514 | 79 | 149 | 0.0 | 1.0 | 0.00 | 0.02 | 0.02 | 68 | 1017.9 |
| 20260901000013 | 79 | 203 | 0.0 | 1.0 | 0.00 | 0.02 | 0.02 | 67 | 1018.0 |
| 20260831234508 | 80 | 186 | 0.0 | 1.0 | 0.00 | 0.02 | 0.02 | 67 | 1018.1 |
| 20260831233008 | 80 | 248 | 0.0 | 1.0 | 0.00 | 0.02 | 0.02 | 65 | 1017.9 |
| 20260831231512 | 81 | 171 | 0.0 | 1.0 | 0.00 | 0.03 | 0.02 | 64 | 1017.9 |
| 20260831230016 | 82 | 265 | 0.0 | 1.0 | 0.00 | 0.03 | 0.02 | 62 | 1018.0 |
| 20260831224510 | 83 | 205 | 0.0 | 1.0 | 0.00 | 0.03 | 0.02 | 61 | 1018.2 |
| 20260831223013 | 84 | 113 | 0.0 | 1.0 | 0.00 | 0.03 | 0.02 | 61 | 1018.2 |
| 20260831221515 | 85 | 281 | 0.0 | 1.0 | 0.00 | 0.03 | 0.02 | 58 | 1018.2 |
| 20260831220013 | 84 | 296 | 0.0 | 2.0 | 0.00 | 0.03 | 0.02 | 58 | 1018.5 |
| 20260831214518 | 85 | 300 | 0.0 | 2.0 | 0.00 | 0.03 | 0.02 | 58 | 1018.4 |
| 20260831213012 | 85 | 264 | 3.0 | 7.0 | 0.00 | 0.03 | 0.02 | 57 | 1018.5 |
| 20260831211516 | 85 | 278 | 0.0 | 3.0 | 0.00 | 0.03 | 0.02 | 56 | 1018.4 |
| 20260831210015 | 85 | 271 | 3.0 | 7.0 | 0.00 | 0.03 | 0.02 | 54 | 1018.7 |
| 20260831204515 | 86 | 290 | 2.0 | 8.0 | 0.00 | 0.03 | 0.02 | 56 | 1018.4 |
| 20260831203018 | 85 | 297 | 1.0 | 3.0 | 0.00 | 0.03 | 0.02 | 58 | 1018.4 |
| 20260831201518 | 85 | 233 | 1.0 | 5.0 | 0.00 | 0.03 | 0.02 | 58 | 1018.6 |
| 20260831200033 | 84 | 285 | 1.0 | 3.0 | 0.00 | 0.03 | 0.02 | 61 | 1018.6 |
| 20260831194517 | 83 | 326 | 0.0 | 5.0 | 0.00 | 0.03 | 0.02 | 60 | 1018.2 |
| 20260831193014 | 84 | 214 | 0.0 | 6.0 | 0.00 | 0.04 | 0.02 | 60 | 1018.6 |
| 20260831191502 | 85 | 281 | 2.0 | 6.0 | 0.00 | 0.04 | 0.02 | 60 | 1018.9 |
| 20260831190015 | 84 | 296 | 3.0 | 10.0 | 0.00 | 0.04 | 0.02 | 58 | 1019.0 |
| 20260831184507 | 84 | 285 | 4.0 | 8.0 | 0.00 | 0.04 | 0.02 | 58 | 1019.2 |
| 20260831183013 | 85 | 210 | 4.0 | 11.0 | 0.00 | 0.04 | 0.02 | 57 | 1019.3 |
| 20260831181526 | 85 | 291 | 5.0 | 11.0 | 0.00 | 0.04 | 0.02 | 57 | 1019.3 |
| 20260831180011 | 86 | 231 | 3.0 | 8.0 | 0.00 | 0.04 | 0.02 | 57 | 1019.3 |
| 20260831174505 | 86 | 309 | 3.0 | 9.0 | 0.00 | 0.04 | 0.02 | 59 | 1019.4 |
| 20260831173011 | 86 | 293 | 1.0 | 6.0 | 0.00 | 0.04 | 0.02 | 60 | 1019.4 |
| 20260831171515 | 85 | 316 | 1.0 | 4.0 | 0.00 | 0.04 | 0.02 | 60 | 1019.3 |
| 20260831170030 | 84 | 21 | 0.0 | 4.0 | 0.00 | 0.04 | 0.02 | 60 | 1019.5 |
| 20260831164513 | 83 | 304 | 1.0 | 6.0 | 0.00 | 0.04 | 0.02 | 61 | 1019.7 |
| 20260831163013 | 84 | 277 | 0.0 | 4.0 | 0.00 | 0.04 | 0.02 | 65 | 1019.7 |
| 20260831161510 | 83 | 172 | 0.0 | 6.0 | 0.00 | 0.04 | 0.02 | 64 | 1019.7 |
| 20260831160019 | 83 | 145 | 1.0 | 5.0 | 0.00 | 0.04 | 0.02 | 63 | 1019.7 |
| 20260831154550 | 83 | 191 | 0.0 | 6.0 | 0.00 | 0.04 | 0.02 | 65 | 1019.6 |
| 20260831153010 | 83 | 318 | 0.0 | 4.0 | 0.00 | 0.04 | 0.02 | 68 | 1019.6 |
| 20260831151507 | 82 | 150 | 0.0 | 5.0 | 0.00 | 0.04 | 0.02 | 67 | 1019.7 |
| 20260831150014 | 82 | 211 | 0.0 | 5.0 | 0.00 | 0.04 | 0.02 | 69 | 1019.9 |
| 20260831144521 | 80 | 142 | 1.0 | 3.0 | 0.00 | 0.04 | 0.02 | 72 | 1019.8 |
| 20260831143027 | 78 | 174 | 0.0 | 3.0 | 0.00 | 0.04 | 0.02 | 70 | 1019.7 |
| 20260831141526 | 79 | 240 | 0.0 | 3.0 | 0.00 | 0.04 | 0.02 | 68 | 1019.8 |
| 20260831140029 | 79 | 269 | 0.0 | 2.0 | 0.00 | 0.04 | 0.02 | 72 | 1019.7 |
| 20260831134516 | 76 | 227 | 0.0 | 4.0 | 0.00 | 0.04 | 0.02 | 78 | 1019.6 |
| 20260831133023 | 74 | 172 | 0.0 | 2.0 | 0.00 | 0.04 | 0.02 | 83 | 1019.6 |
| 20260831131534 | 72 | 112 | 0.0 | 2.0 | 0.00 | 0.04 | 0.02 | 84 | 1019.7 |
| 20260831130030 | 72 | 147 | 1.0 | 2.0 | 0.00 | 0.04 | 0.02 | 85 | 1019.7 |
| 20260831124514 | 71 | 94 | 0.0 | 1.0 | 0.00 | 0.04 | 0.02 | 87 | 1019.7 |
| 20260831123018 | 70 | 84 | 0.0 | 1.0 | 0.00 | 0.04 | 0.02 | 88 | 1019.8 |
| 20260831121529 | 70 | 84 | 1.0 | 2.0 | 0.00 | 0.04 | 0.02 | 88 | 1019.9 |
| 20260831120033 | 70 | 210 | 0.0 | 2.0 | 0.00 | 0.04 | 0.02 | 88 | 1020.0 |
| 20260831114534 | 69 | 123 | 1.0 | 3.0 | 0.00 | 0.04 | 0.02 | 89 | 1019.8 |
| 20260831113016 | 69 | 99 | 0.0 | 2.0 | 0.00 | 0.04 | 0.02 | 89 | 1019.9 |
| 20260831111525 | 69 | 101 | 0.0 | 1.0 | 0.00 | 0.04 | 0.02 | 88 | 1019.7 |
| 20260831110027 | 70 | 105 | 0.0 | 2.0 | 0.00 | 0.04 | 0.02 | 87 | 1019.6 |
| 20260831104510 | 70 | 131 | 0.0 | 3.0 | 0.00 | 0.04 | 0.02 | 87 | 1019.3 |
| 20260831103011 | 69 | 109 | 1.0 | 3.0 | 0.00 | 0.04 | 0.02 | 88 | 1019.1 |
| 20260831101517 | 69 | 110 | 1.0 | 2.0 | 0.00 | 0.04 | 0.02 | 88 | 1019.2 |
| 20260831100005 | 69 | 124 | 1.0 | 4.0 | 0.00 | 0.04 | 0.02 | 88 | 1019.2 |
| 20260831094508 | 69 | 125 | 0.0 | 2.0 | 0.00 | 0.04 | 0.02 | 88 | 1019.1 |
| 20260831093012 | 69 | 98 | 0.0 | 2.0 | 0.00 | 0.04 | 0.02 | 88 | 1019.3 |
| 20260831091515 | 69 | 108 | 0.0 | 2.0 | 0.00 | 0.04 | 0.02 | 88 | 1019.3 |
| 20260831090024 | 69 | 101 | 0.0 | 2.0 | 0.00 | 0.04 | 0.02 | 89 | 1019.2 |
| 20260831084505 | 69 | 91 | 0.0 | 3.0 | 0.00 | 0.04 | 0.02 | 89 | 1019.2 |
| 20260831083010 | 69 | 114 | 1.0 | 3.0 | 0.00 | 0.04 | 0.02 | 89 | 1019.2 |
| 20260831081510 | 69 | 84 | 1.0 | 3.0 | 0.00 | 0.04 | 0.02 | 88 | 1019.2 |
| 20260831080020 | 69 | 183 | 0.0 | 2.0 | 0.00 | 0.04 | 0.02 | 88 | 1019.2 |
| 20260831074526 | 69 | 117 | 1.0 | 3.0 | 0.00 | 0.04 | 0.02 | 88 | 1019.2 |
| 20260831073008 | 69 | 110 | 1.0 | 3.0 | 0.00 | 0.04 | 0.02 | 89 | 1019.3 |
| 20260831071511 | 69 | 103 | 1.0 | 3.0 | 0.00 | 0.04 | 0.02 | 89 | 1019.3 |
| 20260831070017 | 69 | 89 | 1.0 | 3.0 | 0.00 | 0.04 | 0.02 | 89 | 1019.5 |
| 20260831064524 | 69 | 124 | 1.0 | 3.0 | 0.00 | 0.04 | 0.02 | 89 | 1019.7 |
| 20260831063028 | 69 | 109 | 1.0 | 5.0 | 0.00 | 0.04 | 0.02 | 89 | 1019.6 |
| 20260831061530 | 69 | 105 | 1.0 | 5.0 | 0.00 | 0.04 | 0.02 | 89 | 1019.6 |
| 20260831060012 | 69 | 139 | 3.0 | 7.0 | 0.00 | 0.04 | 0.02 | 89 | 1019.4 |
| 20260831054517 | 69 | 130 | 1.0 | 5.0 | 0.00 | 0.04 | 0.02 | 89 | 1019.7 |
| 20260831053026 | 69 | 84 | 3.0 | 7.0 | 0.00 | 0.04 | 0.02 | 90 | 1019.8 |
| 20260831051536 | 68 | 103 | 2.0 | 4.0 | 0.01 | 0.04 | 0.02 | 90 | 1019.9 |
| 20260831050042 | 68 | 95 | 1.0 | 4.0 | 0.02 | 0.04 | 0.02 | 90 | 1020.1 |
| 20260831044521 | 68 | 133 | 2.0 | 6.0 | 0.02 | 0.04 | 0.02 | 90 | 1020.1 |
| 20260831043023 | 68 | 120 | 2.0 | 5.0 | 0.02 | 0.04 | 0.02 | 89 | 1020.3 |
| 20260831041525 | 69 | 99 | 3.0 | 6.0 | 0.01 | 0.03 | 0.01 | 89 | 1020.6 |
| 20260831040033 | 69 | 80 | 2.0 | 5.0 | 0.00 | 0.02 | 0.00 | 88 | 1020.5 |
| 20260831034534 | 69 | 81 | 1.0 | 4.0 | 0.00 | 0.02 | 0.02 | 88 | 1020.4 |
| 20260831033031 | 69 | 118 | 1.0 | 6.0 | 0.00 | 0.02 | 0.02 | 88 | 1020.2 |
| 20260831031524 | 69 | 105 | 2.0 | 4.0 | 0.00 | 0.02 | 0.02 | 89 | 1020.3 |
| 20260831030028 | 69 | 112 | 2.0 | 3.0 | 0.00 | 0.02 | 0.02 | 89 | 1020.6 |
| 20260831024531 | 69 | 94 | 1.0 | 4.0 | 0.00 | 0.02 | 0.02 | 89 | 1020.6 |
| 20260831023032 | 69 | 113 | 1.0 | 3.0 | 0.00 | 0.02 | 0.02 | 89 | 1020.7 |
| 20260831021523 | 69 | 98 | 1.0 | 3.0 | 0.00 | 0.02 | 0.02 | 89 | 1020.7 |
| 20260831020027 | 70 | 121 | 1.0 | 5.0 | 0.00 | 0.02 | 0.02 | 88 | 1020.9 |
| 20260831014530 | 70 | 105 | 2.0 | 3.0 | 0.00 | 0.02 | 0.02 | 88 | 1021.0 |
| 20260831013031 | 70 | 104 | 1.0 | 2.0 | 0.00 | 0.02 | 0.02 | 88 | 1021.2 |
| 20260831011518 | 70 | 98 | 1.0 | 2.0 | 0.00 | 0.02 | 0.02 | 88 | 1021.1 |